Elko, NV

10:26 AM PDT on May 28, 2017 (GMT -0700)
Elko Regional

Weather History for KEKO - April, 2013

Change the Weather History Date:

Tuesday, April 23, 2013

  Actual Average Record
Temperature  
Mean Temperature 36 °F 47 °F  
Max Temperature 54 °F 62 °F 86 °F (2012)
Min Temperature 18 °F 32 °F 15 °F (1961)
Degree Days  
Heating Degree Days 29 18  
Month to date heating degree days 511 475  
Since 1 July heating degree days 6300 6452  
Cooling Degree Days 0 0  
Month to date cooling degree days 0 0  
Year to date cooling degree days 0 0  
Moisture  
Dew Point 9 °F    
Average Humidity 39    
Maximum Humidity 62    
Minimum Humidity 15    
Precipitation  
Precipitation 0.00 in 0.04 in 0.75 in (1900)
Month to date precipitation 0.48 0.74  
Year to date precipitation 2.20 3.70  
Snow  
Snow 0.00 in 0.10 in 1.10 in (1964)
Month to date snowfall 1.3 2.8  
Since 1 July snowfall 42.2 40.4  
Snow Depth 0.00 in    
Sea Level Pressure  
Sea Level Pressure 30.17 in    
Wind  
Wind Speed 4 mph (WSW)    
Max Wind Speed 21 mph    
Max Gust Speed 28 mph    
Visibility 10 miles    
Events      
T = Trace of Precipitation, MM = Missing Value Source: NWS Daily Summary

Daily Weather History Graph

Daily Weather History Graph

Search for Another Location

Airport or City:

Trip Planner

Search our weather history database for the weather conditions in past years. The results will help you decide how hot, cold, wet, or windy it might be!

Date:

Astronomy

Apr. 23, 2013 Rise Set
Actual Time 5:51 AM PDT 7:31 PM PDT
Civil Twilight 5:22 AM PDT 8:00 PM PDT
Nautical Twilight 4:47 AM PDT 8:35 PM PDT
Astronomical Twilight 4:10 AM PDT 9:13 PM PDT
Moon 5:30 PM PDT (4/23) 4:23 AM PDT (4/23)
Length of Visible Light 14h 37m
Length of Day
13h 39m
Waxing Gibbous, 94% of the Moon is Illuminated
Apr 23
Waxing Gibbous
Apr 25
Full
May 2
Last Quarter
May 9
New
May 17
First Quarter

Hourly Weather History & Observations

Time (PDT) Temp. Windchill Dew Point Humidity Pressure Visibility Wind Dir Wind Speed Gust Speed Precip Events Conditions
12:56 AM 28.9 °F 23.9 °F 8.1 °F 41% 30.25 in 10.0 mi WSW 4.6 mph - N/A   Clear
1:56 AM 28.9 °F - 9.0 °F 43% 30.24 in 10.0 mi Calm Calm - N/A   Clear
2:56 AM 25.0 °F - 10.0 °F 53% 30.24 in 10.0 mi Calm Calm - N/A   Clear
3:56 AM 21.9 °F - 10.0 °F 60% 30.26 in 10.0 mi Calm Calm - N/A   Clear
4:56 AM 21.0 °F - 8.1 °F 57% 30.27 in 10.0 mi Calm Calm - N/A   Clear
5:56 AM 21.0 °F - 10.0 °F 63% 30.29 in 10.0 mi Calm Calm - N/A   Clear
6:56 AM 24.1 °F - 10.9 °F 57% 30.30 in 10.0 mi Calm Calm - N/A   Clear
7:56 AM 30.0 °F - 12.0 °F 47% 30.29 in 10.0 mi Calm Calm - N/A   Clear
8:56 AM 37.9 °F - 10.9 °F 33% 30.28 in 10.0 mi Calm Calm - N/A   Clear
9:56 AM 42.1 °F - 12.0 °F 29% 30.26 in 10.0 mi Calm Calm - N/A   Clear
10:56 AM 46.0 °F 43.1 °F 8.1 °F 21% 30.23 in 10.0 mi Variable 5.8 mph - N/A   Clear
11:56 AM 46.9 °F - 8.1 °F 21% 30.21 in 10.0 mi Calm Calm - N/A   Clear
12:56 PM 50.0 °F - 8.1 °F 18% 30.17 in 10.0 mi West 5.8 mph - N/A   Clear
1:56 PM 52.0 °F - 9.0 °F 18% 30.14 in 10.0 mi SSW 6.9 mph - N/A   Clear
2:56 PM 52.0 °F - 8.1 °F 17% 30.12 in 10.0 mi South 4.6 mph - N/A   Clear
3:56 PM 53.1 °F - 6.1 °F 15% 30.10 in 10.0 mi SE 3.5 mph - N/A   Clear
4:56 PM 53.1 °F - 6.1 °F 15% 30.09 in 10.0 mi SW 8.1 mph - N/A   Clear
5:56 PM 52.0 °F - 7.0 °F 16% 30.07 in 10.0 mi West 4.6 mph - N/A   Clear
6:56 PM 53.1 °F - 6.1 °F 15% 30.05 in 10.0 mi West 8.1 mph - N/A   Clear
7:56 PM 48.0 °F - 9.0 °F 21% 30.05 in 10.0 mi West 4.6 mph - N/A   Clear
8:56 PM 46.0 °F - 12.0 °F 25% 30.05 in 10.0 mi Calm Calm - N/A   Partly Cloudy
9:56 PM 48.0 °F - 10.0 °F 22% 30.05 in 10.0 mi ENE 3.5 mph - N/A   Overcast
10:56 PM 48.9 °F - 10.9 °F 22% 30.05 in 10.0 mi North 19.6 mph 27.6 mph N/A   Overcast
11:56 PM 46.9 °F - 12.0 °F 24% 30.08 in 10.0 mi NNE 10.4 mph - N/A   Overcast